Regional Weather Roundup
Issued by NWS

Home | Current Version | Previous Version | Graphics & Text | Print | Product List | Glossary On
Versions: 1 2 3 4 5 6 7 8 9 10 11 12 13 14 15 16 17 18 19 20 21 22 23 24 25 26 27 28 29 30 31 32 33 34 35 36 37 38 39 40 41 42 43 44 45 46 47 48 49 50
000
ASUS45 KCYS 221610
RWRWY

WYOMING REGIONAL WEATHER ROUNDUP
NATIONAL WEATHER SERVICE CHEYENNE WY
900 AM MST SAT NOV 22 2014

NOTE:  "FAIR" INDICATES FEW OR NO CLOUDS BELOW 12,000 FEET
WITH NO SIGNIFICANT WEATHER AND/OR OBSTRUCTIONS TO VISIBILITY.

WYZ001-221700-
YELLOWSTONE NATIONAL PARK

CITY           SKY/WX    TMP DP  RH WIND       PRES   REMARKS
LK YELLOWSTONE   N/A     29  26  89 VRB7      29.63F WCI  22
W YELLOWSTONE  NOT AVBL

$$
WYZ002>013-054>058-071-098>099-221700-
NORTHERN WYOMING

CITY           SKY/WX    TMP DP  RH WIND       PRES   REMARKS
JACKSON        CLOUDY    34  32  93 SW13      29.70F WCI  25
CODY           CLOUDY    43  28  56 SW21G40   29.47R
GREYBULL       CLOUDY    19  17  92 CALM      29.59F
WORLAND        CLOUDY    27  22  81 SE3       29.58F
SHERIDAN       CLOUDY    49  26  41 VRB7      29.44S
BUFFALO        CLOUDY    42  17  36 VRB7      29.47F
GILLETTE       PTSUNNY   42  26  53 SW26G37   29.47R
HULETT           N/A    N/A N/A N/A MISG        N/A
NEWCASTLE      FAIR      41  25  52 E5        29.55F

$$
WYZ014>020-022>026-101>103-221700-
CENTRAL WYOMING

CITY           SKY/WX    TMP DP  RH WIND       PRES   REMARKS
BIG PINEY      FLURRIES  29  23  78 NE8       29.78S WCI  21
PINEDALE       LGT SNOW  30  28  93 E6        29.79F VSB 3/4 WCI  24
DUBOIS         LGT SNOW  32  27  80 N15G24    29.64F WCI  22
LANDER         NOT AVBL
RIVERTON       PTSUNNY   27  18  69 N6        29.63F WCI  20
CASPER         CLOUDY    41  21  44 SW25G33   29.67R
DOUGLAS        NOT AVBL

$$
WYZ021-027>030-104>119-221700-
SOUTHERN WYOMING

CITY           SKY/WX    TMP DP  RH WIND       PRES   REMARKS
EVANSTON       MOSUNNY   38  23  55 SW13      29.81F WCI  30
KEMMERER       PTSUNNY   37  23  56 SW29G38   29.77F WCI  25
FORT BRIDGER   FAIR      43  24  46 W18G24    29.80F
ROCK SPRINGS   MOSUNNY   37  19  48 S5        29.82F WCI  33
DIXON          FAIR      41  18  38 S20G31    29.92F
RAWLINS        PTSUNNY   38  18  44 SW28G36   29.82R WCI  26
SARATOGA       FAIR      41  21  45 S12       29.85F
LARAMIE        PTSUNNY   37  17  44 SW32G40   29.74F WCI  24
CHEYENNE       CLOUDY    44  15  31 SW10      29.73F
TORRINGTON     CLOUDY    51  21  30 SW17G28   29.64F
PINE BLUFFS    FAIR      36  23  60 S3        29.73F

$$


USA.gov is the U.S. government's official web portal to all federal, state and local government web resources and services.